星链-31357 (STARLINK-31357 )

导读 | 星芒AI

STARLINK-31357 是 SpaceX Starlink 项目中的一颗低轨通信卫星,属于该计划的多个批次之一。该卫星旨在为全球提供高速互联网服务,尤其关注偏远和网络覆盖不足的地区。它运行在约 550 公里的轨道高度,配备先进通信设备,支持星间链路,以减少对地面站的依赖。作为 Starlink 卫星群的一部分,STARLINK-31357 有助于提升全球互联网接入的可靠性和速度。

基本信息
目录编号:
59502
目录名称:
STARLINK-31357
国际标识:
2024-071U
轨道中心:
EARTH
卫星名称:
星链-31357
卫星全名:
星链-31357 (STARLINK-31357 )
卫星状态:
在轨 (已飞行573 天)
发射日期:
2024-04-13 UTC
国别 :
美国 (US)
星等 :
--
轨道信息
数据来源 国际轨道数据
星历时间: 2025-11-07T15:11:39+0800
6小时前
查看轨道信息
半长轴: 6861.17km
偏心率: 0.0002817
轨道倾角: 42.997°
近地点辐角 114.616°
升交点赤经 311.280°
平近点角 245.499°
近地点: 481.102km
远地点: 484.968km
周期: 94.266分钟
每日圈数: 15.275854
详细信息
固有亮度:
5
最大亮度:
1.5
卫星平台:
Starlink v2.0 mini
覆盖范围:
全球
运营商:
太空探索技术公司
运营商所在国:
美国
制造商(研发单位):
太空探索技术公司
制造商所在国:
美国
使用方式:
暂无
卫星简介
星链(Starlink)计划是由太空探索技术公司(SpaceX)提出的一个巨型低轨卫星互联网星座项目,计划在2019年至2024年间在太空搭建由约1.2万颗卫星组成的“星链”网络,其中1584颗将部署在地球上空550千米处的近地轨道,并从2020年开始工作。该卫星仍在工作。
2D轨道图
3D轨道图
轨道高度分析图
轨道倾角分析图
轨道综合分析图
查看轨道综合分析图